[[{"header":{"parameterUnit":"m.s-1","parameterCategory":2,"la1":30.2991,"la2":30.254,"lo1":-89.0895,"lo2":-89.0444,"dy":0.0017,"dx":0.0017,"nx":28,"ny":28,"refTime":"2023-03-20T15:00:00:Z","depth":"0","parameterNumber":2,"parameterNumberName":"U-component_of_CURRENTS"},"data":[0,0,0,0,0,0,0,0,0,0,0,0,0,0,0,0,0,0,0,0,0,0,0,0,0,0,0,0,0,0,0,0,0,0,0,0,0,0,0,0,0,0,0,0,0,0,0,0,0,0,0,0,0,0,0,0,0,0,-0.2453,-0.2454,0,-0.2381,-0.2379,-0.2378,-0.2297,-0.2297,-0.2297,-0.2297,-0.2199,-0.2197,-0.2194,0,0,0,0,0,0,0,0,0,0,0,0,0,-0.2444,-0.2444,-0.2453,-0.2454,-0.2454,-0.2382,-0.2379,-0.2377,-0.2297,-0.2297,-0.2297,-0.2297,-0.22,-0.2197,-0.2194,0,0,0,0,0,0,0,0,0,0,0,0,0,-0.2406,-0.2444,-0.2453,-0.2414,-0.2411,-0.2382,-0.2379,-0.2377,-0.2297,-0.2297,-0.2297,-0.2297,-0.2201,-0.2198,-0.2194,-0.2171,0,0,-0.2182,-0.218,0,0,0,0,0,0,0,0,-0.2408,-0.2405,-0.242,-0.2417,-0.2414,-0.2359,-0.2341,-0.2311,-0.2297,-0.2327,-0.2297,-0.2297,-0.2259,-0.225,-0.2219,-0.2167,-0.2162,-0.2182,-0.2179,-0.2178,-0.2177,0,0,0,0,0,0,0,-0.2411,-0.2407,-0.2412,-0.242,-0.2417,-0.2375,-0.2369,-0.2334,-0.2284,-0.2324,-0.2321,-0.2333,-0.2255,-0.2223,-0.2216,-0.2161,-0.2182,-0.2178,-0.2176,-0.2175,-0.2035,-0.2034,0,0,0,0,0,0,-0.2449,-0.241,-0.2415,-0.2411,-0.2425,-0.2376,-0.2369,-0.2366,-0.2285,-0.2276,-0.2334,-0.233,-0.223,-0.2221,-0.2213,-0.2141,-0.2178,-0.2174,-0.2172,-0.2037,-0.2035,-0.2033,0,0,0,0,0,0,-0.2449,-0.245,-0.2418,-0.242,-0.2414,-0.2379,-0.2375,-0.2365,-0.2332,-0.2294,-0.2282,-0.2313,-0.2229,-0.2218,-0.2166,-0.2138,-0.2172,-0.2169,-0.2038,-0.2036,-0.2034,-0.2023,0,0,0,0,0,0,-0.2449,-0.2449,-0.2446,-0.2422,-0.2416,-0.2388,-0.2376,-0.2364,-0.2347,-0.234,-0.2273,-0.2264,-0.2228,-0.2172,-0.2162,-0.2134,-0.2166,-0.204,-0.2037,-0.2035,-0.2025,-0.2021,-0.2017,0,0,0,0,0,-0.2448,-0.2437,-0.2446,-0.2447,-0.2417,-0.2389,-0.2378,-0.2345,-0.2346,-0.2317,-0.2275,-0.2266,-0.2148,-0.2167,-0.2156,-0.2126,-0.2041,-0.2038,-0.2035,-0.2027,-0.2022,-0.2017,0,0,0,0,0,0,-0.24,-0.2429,-0.2437,-0.2427,-0.2413,-0.2379,-0.236,-0.2349,-0.2292,-0.2293,-0.2249,-0.2235,-0.2176,-0.2156,-0.2178,-0.2078,-0.2093,-0.2087,-0.2091,-0.2085,-0.2081,-0.208,-0.2163,0,0,0,0,0,-0.2404,-0.2414,-0.2421,-0.2407,-0.2413,-0.2391,-0.2376,-0.2361,-0.2325,-0.2299,-0.2256,-0.2209,-0.2153,-0.2126,-0.2077,-0.2029,-0.2036,-0.2001,-0.1997,-0.1994,-0.1984,-0.198,-0.1975,-0.2023,-0.2023,-0.2023,0,0,-0.2374,-0.2399,-0.2396,-0.2401,-0.2391,-0.2369,-0.2376,-0.236,-0.2323,-0.23,-0.2227,-0.2194,-0.2137,-0.207,-0.2043,-0.2052,-0.1987,-0.199,-0.1988,-0.198,-0.1976,-0.1972,-0.1968,-0.2021,-0.2021,-0.2022,0,0,-0.2327,-0.2354,-0.2349,-0.2348,-0.2363,-0.2352,-0.2355,-0.2332,-0.2303,-0.2249,-0.2216,-0.2164,-0.2091,-0.2031,-0.1996,-0.1943,-0.1966,-0.1939,-0.1915,-0.1912,-0.1908,-0.1905,-0.1927,-0.1926,-0.1937,-0.1937,-0.1937,0,-0.2282,-0.2292,-0.2333,-0.2328,-0.2326,-0.2348,-0.2323,-0.2293,-0.2245,-0.2231,-0.2225,-0.2116,-0.2061,-0.198,-0.1945,-0.1931,-0.1956,-0.1941,-0.1909,-0.1906,-0.1903,-0.1926,-0.1925,-0.1936,-0.1936,-0.1936,-0.1937,0,-0.2243,-0.2242,-0.2239,-0.225,-0.2245,-0.2231,-0.2231,-0.2213,-0.2205,-0.2182,-0.2122,-0.2053,-0.1998,-0.1962,-0.1926,-0.1873,-0.1907,-0.1909,-0.1928,-0.1898,-0.1924,-0.1923,-0.1935,-0.1935,-0.1936,-0.1936,0,0,-0.2145,-0.2199,-0.2193,-0.2218,-0.2213,-0.2224,-0.2173,-0.2152,-0.2165,-0.2097,-0.2083,-0.1951,-0.1961,-0.1919,-0.1884,-0.1854,-0.1839,-0.1872,-0.1872,-0.1906,-0.1867,-0.1889,-0.1891,-0.1855,-0.1855,-0.1854,-0.1901,0,-0.2089,-0.2088,-0.2121,-0.2112,-0.2116,-0.2143,-0.2117,-0.211,-0.2102,-0.2098,-0.203,-0.2004,-0.1934,-0.1936,-0.1883,-0.1872,-0.1835,-0.1828,-0.1879,-0.188,-0.1913,-0.1889,-0.176,-0.1791,-0.19,-0.19,-0.19,0,-0.2023,-0.2054,-0.2034,-0.2108,-0.2118,-0.212,-0.2156,-0.2136,-0.2124,-0.2127,-0.2083,-0.2065,-0.1994,-0.1958,-0.1893,-0.1909,-0.1868,-0.1846,-0.1848,-0.1868,-0.19,-0.1832,-0.1786,-0.1778,-0.19,-0.19,-0.19,0,-0.1963,-0.1993,-0.1997,-0.2008,-0.2075,-0.2098,-0.2131,-0.214,-0.2158,-0.2159,-0.2192,-0.2119,-0.2119,-0.2046,-0.1969,-0.1955,-0.1928,-0.1914,-0.1883,-0.1887,-0.1782,-0.1777,-0.1737,-0.1842,-0.1842,-0.1842,-0.1842,0,-0.189,-0.1903,-0.1995,-0.2011,-0.2081,-0.2113,-0.217,-0.2204,-0.223,-0.2266,-0.2221,-0.2238,-0.2145,-0.2112,-0.2018,-0.1965,-0.1968,-0.1873,-0.1891,-0.1777,-0.1771,-0.1765,-0.177,-0.1843,-0.1843,-0.1843,-0.1842,0,-0.1819,-0.1846,-0.191,-0.2017,-0.2055,-0.2119,-0.2225,-0.2274,-0.2299,-0.2346,-0.2353,-0.2349,-0.2319,-0.2219,-0.2134,-0.2059,-0.1949,-0.195,-0.1837,-0.1839,-0.1821,-0.183,-0.1786,-0.1753,-0.1951,-0.1952,-0.1952,0,-0.1774,-0.1788,-0.194,-0.2002,-0.2064,-0.2154,-0.2219,-0.2292,-0.2341,-0.2405,-0.2437,-0.2432,-0.2355,-0.2267,-0.2148,-0.2018,-0.196,-0.1876,-0.1793,-0.1801,-0.1823,-0.1802,-0.1775,-0.1656,-0.1654,-0.1653,-0.1651,0,-0.1735,-0.1799,-0.188,-0.1987,-0.209,-0.2175,-0.2272,-0.2305,-0.2378,-0.2387,-0.2367,-0.2299,-0.2274,-0.2086,-0.2001,-0.1908,-0.1835,-0.1846,-0.1853,-0.1586,-0.1555,-0.1539,-0.1683,-0.1637,-0.1639,-0.164,-0.1641,-0.1641,-0.1728,-0.1781,-0.1869,-0.197,-0.2071,-0.2102,-0.2099,-0.2169,-0.215,-0.2092,-0.2182,-0.2038,-0.2001,-0.1837,-0.1798,-0.1728,-0.1742,-0.1629,-0.1643,-0.1626,-0.1566,-0.1711,-0.1692,-0.1694,-0.1695,-0.1697,-0.1698,0,-0.1692,-0.1734,-0.183,-0.1912,-0.1948,-0.2013,-0.2062,-0.1986,-0.1873,-0.1883,-0.1772,-0.1674,-0.1552,-0.1583,-0.1542,-0.1496,-0.1437,-0.1485,-0.1381,-0.1367,-0.1475,-0.1434,-0.1359,-0.1359,-0.1359,-0.1359,-0.1359,-0.1359,-0.1676,-0.1706,-0.1736,-0.1726,-0.1765,-0.1693,-0.1654,-0.1558,-0.1511,-0.133,-0.1281,-0.1297,-0.1355,-0.1445,-0.1414,-0.1371,-0.1343,-0.1284,-0.1367,-0.1404,-0.1417,-0.1429,-0.1391,-0.1308,-0.1308,-0.1156,-0.1155,-0.1154]},{"header":{"parameterUnit":"m.s-1","parameterCategory":2,"la1":30.2991,"la2":30.254,"lo1":-89.0895,"lo2":-89.0444,"dy":0.0017,"dx":0.0017,"nx":28,"ny":28,"refTime":"2023-03-20T15:00:00:Z","depth":"0","parameterNumber":3,"parameterNumberName":"V-component_of_CURRENTS"},"data":[0,0,0,0,0,0,0,0,0,0,0,0,0,0,0,0,0,0,0,0,0,0,0,0,0,0,0,0,0,0,0,0,0,0,0,0,0,0,0,0,0,0,0,0,0,0,0,0,0,0,0,0,0,0,0,0,0,0,-0.0653,-0.0654,0,-0.0679,-0.0678,-0.0678,-0.0704,-0.0705,-0.0706,-0.0707,-0.056,-0.0555,-0.055,0,0,0,0,0,0,0,0,0,0,0,0,0,-0.0541,-0.0543,-0.0653,-0.0654,-0.0655,-0.0679,-0.0678,-0.0678,-0.0704,-0.0705,-0.0706,-0.0707,-0.0561,-0.0556,-0.055,0,0,0,0,0,0,0,0,0,0,0,0,0,-0.0574,-0.0543,-0.0653,-0.0676,-0.0678,-0.0679,-0.0678,-0.0678,-0.0704,-0.0705,-0.0707,-0.0708,-0.0563,-0.0556,-0.0549,-0.0475,0,0,-0.0527,-0.0524,0,0,0,0,0,0,0,0,-0.0572,-0.0577,-0.0671,-0.0674,-0.0677,-0.0696,-0.0586,-0.0604,-0.0703,-0.0687,-0.0707,-0.0709,-0.0592,-0.0583,-0.0577,-0.0468,-0.0462,-0.0526,-0.0522,-0.0519,-0.0517,0,0,0,0,0,0,0,-0.057,-0.0576,-0.0656,-0.0672,-0.0676,-0.0656,-0.0662,-0.0589,-0.0622,-0.0688,-0.0692,-0.0705,-0.0592,-0.0584,-0.0574,-0.046,-0.0527,-0.052,-0.0516,-0.0513,-0.0258,-0.0256,0,0,0,0,0,0,-0.0584,-0.0574,-0.0655,-0.0658,-0.0635,-0.0658,-0.0664,-0.0683,-0.0627,-0.0624,-0.0704,-0.0707,-0.0596,-0.0582,-0.0568,-0.0446,-0.0519,-0.0512,-0.0508,-0.0261,-0.0258,-0.0255,0,0,0,0,0,0,-0.0581,-0.0591,-0.0654,-0.0621,-0.0629,-0.0659,-0.0679,-0.0683,-0.0671,-0.0642,-0.0634,-0.069,-0.0597,-0.0579,-0.0504,-0.0442,-0.0509,-0.0502,-0.0263,-0.026,-0.0256,-0.0221,0,0,0,0,0,0,-0.0578,-0.059,-0.0589,-0.0623,-0.0632,-0.063,-0.0678,-0.0682,-0.0681,-0.0684,-0.0626,-0.0616,-0.0596,-0.0515,-0.0497,-0.0433,-0.0497,-0.0267,-0.0262,-0.0258,-0.0225,-0.0216,-0.0209,0,0,0,0,0,-0.0574,-0.0556,-0.0589,-0.0598,-0.0636,-0.0629,-0.0629,-0.0651,-0.0678,-0.0649,-0.0633,-0.0617,-0.0473,-0.0508,-0.0487,-0.0419,-0.0269,-0.0263,-0.0258,-0.0228,-0.0218,-0.0209,0,0,0,0,0,0,-0.0493,-0.0559,-0.0595,-0.0597,-0.0609,-0.0636,-0.0616,-0.0639,-0.0606,-0.0604,-0.0588,-0.0573,-0.0484,-0.0454,-0.0493,-0.0333,-0.0365,-0.0355,-0.035,-0.0339,-0.0331,-0.0324,-0.0491,0,0,0,0,0,-0.0483,-0.0498,-0.0545,-0.0544,-0.0551,-0.0583,-0.0581,-0.0596,-0.0587,-0.0576,-0.0551,-0.0505,-0.0442,-0.0399,-0.0343,-0.0247,-0.0241,-0.0189,-0.0181,-0.0175,-0.0154,-0.0121,-0.0109,-0.0237,-0.0237,-0.0237,0,0,-0.0458,-0.0493,-0.0503,-0.053,-0.0545,-0.0524,-0.0582,-0.0567,-0.0538,-0.0557,-0.0495,-0.0473,-0.0414,-0.0323,-0.0277,-0.029,-0.0134,-0.0168,-0.0163,-0.0145,-0.0114,-0.0102,-0.0091,-0.0234,-0.0234,-0.0235,0,0,-0.0392,-0.044,-0.0421,-0.0427,-0.0447,-0.0463,-0.0458,-0.0476,-0.047,-0.0416,-0.0424,-0.0372,-0.0281,-0.0234,-0.0195,-0.0098,-0.01,-0.0076,-0.0016,0.0015,0.0025,0.0034,0.0051,0.0062,-0.0065,-0.0065,-0.0065,0,-0.0358,-0.0359,-0.0405,-0.0378,-0.0386,-0.0433,-0.0401,-0.0384,-0.0374,-0.036,-0.0383,-0.0275,-0.023,-0.012,-0.0095,-0.0076,-0.0077,-0.0064,0.0022,0.0032,0.004,0.0056,0.0067,-0.0063,-0.0063,-0.0063,-0.0063,0,-0.0275,-0.0278,-0.0261,-0.0264,-0.0256,-0.0239,-0.0248,-0.0229,-0.0244,-0.024,-0.0162,-0.0126,-0.007,-0.0037,-0.0032,0.0066,0.0038,0.0017,-0.0011,0.0055,0.0068,0.0078,-0.0059,-0.006,-0.0061,-0.0061,0,0,-0.0212,-0.0211,-0.0207,-0.0222,-0.0209,-0.0213,-0.0145,-0.0122,-0.0107,-0.0067,-0.0032,0.0075,0.0055,0.0099,0.0109,0.0149,0.0206,0.0111,0.0111,0.0113,0.0258,0.0252,0.0263,0.0181,0.0183,0.0185,0.0238,0,-0.0146,-0.0116,-0.0106,-0.0078,-0.0085,-0.0096,-0.0047,-0.0022,-0.0011,0.0017,0.0072,0.0114,0.0122,0.0127,0.018,0.02,0.0237,0.0193,0.0208,0.021,0.0184,0.0277,0.0256,0.0303,0.0248,0.025,0.0251,0,-0.0066,-0.0084,-0.0053,-0.0068,-0.0065,-0.0041,-0.0035,0.0012,0.0071,0.0083,0.0145,0.016,0.0259,0.0217,0.0322,0.0285,0.0283,0.0291,0.0292,0.0287,0.0226,0.0233,0.0324,0.0399,0.0268,0.0266,0.0265,0,-0.0067,-0.0042,-0.0044,-0.0046,-0.0047,-0.0037,-0.0029,0.0018,0.0037,0.0109,0.0122,0.0231,0.0261,0.0314,0.0349,0.0329,0.0425,0.0394,0.0393,0.0391,0.0382,0.0376,0.0539,0.0451,0.045,0.045,0.045,0,-0.0027,-0.003,-0.0065,-0.0082,-0.0112,-0.0073,-0.0069,-0.0044,0.0017,0.005,0.0137,0.0179,0.0278,0.034,0.037,0.0432,0.0447,0.0436,0.0422,0.0394,0.0389,0.0458,0.0478,0.0452,0.0452,0.0451,0.0451,0,-0.0034,-0.0028,-0.0076,-0.011,-0.0124,-0.0159,-0.0148,-0.0139,-0.0057,-0.0012,0.0012,0.0143,0.0249,0.0332,0.0416,0.0449,0.0533,0.05,0.046,0.0442,0.0529,0.055,0.0676,0.0688,0.0543,0.0544,0.0544,0,-0.0032,-0.0059,-0.0155,-0.0209,-0.0237,-0.027,-0.0286,-0.0213,-0.0188,-0.0036,-0.0018,0.0111,0.0198,0.0351,0.0434,0.0517,0.054,0.0529,0.051,0.0572,0.0586,0.0585,0.0585,0.0505,0.0505,0.0505,0.0505,0,-0.0091,-0.0134,-0.0208,-0.0326,-0.0381,-0.041,-0.0413,-0.0399,-0.0272,-0.0195,-0.0062,0.0031,0.0203,0.0331,0.0442,0.048,0.0578,0.0532,0.0617,0.061,0.0602,0.0591,0.042,0.0506,0.0506,0.0506,0.0506,0.0506,-0.0171,-0.026,-0.0364,-0.047,-0.0517,-0.053,-0.0524,-0.0481,-0.0411,-0.026,-0.0156,0.0001,0.0225,0.0408,0.0457,0.0599,0.058,0.0628,0.0659,0.0661,0.0664,0.0496,0.055,0.055,0.055,0.0551,0.0551,0,-0.0279,-0.037,-0.0489,-0.0592,-0.0636,-0.0622,-0.0587,-0.0538,-0.0444,-0.0329,-0.0202,0.0069,0.0253,0.0454,0.0677,0.0734,0.0716,0.0769,0.078,0.0779,0.0656,0.0646,0.07,0.0699,0.0699,0.0699,0.0699,0.0699,-0.0339,-0.049,-0.0558,-0.0677,-0.071,-0.069,-0.0651,-0.0573,-0.0473,-0.0276,-0.0104,0.0018,0.0375,0.0756,0.0943,0.0923,0.0967,0.0932,0.0981,0.0915,0.0904,0.0894,0.0894,0.0998,0.0999,0.1068,0.1069,0.107]}],[{"header":{"parameterUnit":"m.s-1","parameterCategory":2,"la1":30.2991,"la2":30.254,"lo1":-89.0895,"lo2":-89.0444,"dy":0.0017,"dx":0.0017,"nx":28,"ny":28,"refTime":"2023-03-20T15:00:00:Z","depth":"2","parameterNumber":2,"parameterNumberName":"U-component_of_CURRENTS"},"data":[0,0,0,0,0,0,0,0,0,0,0,0,0,0,0,0,0,0,0,0,0,0,0,0,0,0,0,0,0,0,0,0,0,0,0,0,0,0,0,0,0,0,0,0,0,0,0,0,0,0,0,0,0,0,0,0,0,0,-0.2238,-0.2239,0,-0.2252,-0.2251,-0.225,-0.2208,-0.2208,-0.2208,-0.2208,-0.2114,-0.2111,-0.2109,0,0,0,0,0,0,0,0,0,0,0,0,0,-0.2172,-0.2172,-0.2238,-0.2239,-0.2241,-0.2252,-0.2251,-0.225,-0.2208,-0.2208,-0.2208,-0.2208,-0.2114,-0.2112,-0.2109,0,0,0,0,0,0,0,0,0,0,0,0,0,-0.2182,-0.2172,-0.2238,-0.2231,-0.2231,-0.2252,-0.2251,-0.2249,-0.2208,-0.2208,-0.2208,-0.2207,-0.2115,-0.2112,-0.2108,-0.2088,0,0,-0.2097,-0.2096,0,0,0,0,0,0,0,0,-0.2181,-0.2182,-0.2231,-0.2232,-0.2232,-0.224,-0.2194,-0.2195,-0.2208,-0.2203,-0.2208,-0.2207,-0.2155,-0.2148,-0.2133,-0.2083,-0.2079,-0.2097,-0.2095,-0.2093,-0.2092,0,0,0,0,0,0,0,-0.218,-0.2182,-0.223,-0.2232,-0.2234,-0.2227,-0.2227,-0.2193,-0.2167,-0.2203,-0.2203,-0.2226,-0.2152,-0.2137,-0.2131,-0.2078,-0.2097,-0.2094,-0.2091,-0.209,-0.1927,-0.1925,0,0,0,0,0,0,-0.2206,-0.2181,-0.223,-0.2232,-0.2221,-0.2229,-0.2229,-0.2226,-0.2169,-0.2165,-0.2226,-0.2225,-0.2143,-0.2135,-0.2127,-0.2024,-0.2093,-0.209,-0.2088,-0.1929,-0.1927,-0.1925,0,0,0,0,0,0,-0.2204,-0.2209,-0.2229,-0.2219,-0.2223,-0.2232,-0.2229,-0.2227,-0.222,-0.2191,-0.2182,-0.2225,-0.2143,-0.2132,-0.2076,-0.2023,-0.2088,-0.2085,-0.1932,-0.1929,-0.1926,-0.1865,0,0,0,0,0,0,-0.2201,-0.2207,-0.2193,-0.222,-0.2225,-0.2234,-0.2231,-0.2228,-0.2241,-0.2238,-0.2186,-0.2177,-0.2142,-0.2082,-0.2073,-0.2019,-0.2082,-0.1935,-0.1931,-0.1927,-0.187,-0.186,-0.1852,0,0,0,0,0,-0.2198,-0.2187,-0.2191,-0.2198,-0.2211,-0.2235,-0.2234,-0.2233,-0.2241,-0.2226,-0.2184,-0.2179,-0.205,-0.2077,-0.2067,-0.2011,-0.1937,-0.1932,-0.1927,-0.1874,-0.1862,-0.1853,0,0,0,0,0,0,-0.2136,-0.2184,-0.2189,-0.2187,-0.2209,-0.2233,-0.2234,-0.2242,-0.22,-0.2198,-0.2159,-0.2145,-0.2062,-0.2057,-0.2089,-0.1952,-0.199,-0.1983,-0.1953,-0.1941,-0.1933,-0.1894,-0.2079,0,0,0,0,0,-0.2125,-0.2126,-0.2175,-0.2165,-0.2193,-0.2216,-0.2224,-0.2231,-0.2219,-0.2202,-0.2163,-0.2111,-0.2034,-0.2009,-0.1947,-0.1894,-0.189,-0.1849,-0.184,-0.1833,-0.1793,-0.1785,-0.1773,-0.1909,-0.1909,-0.1909,0,0,-0.2098,-0.2124,-0.2123,-0.2153,-0.2178,-0.2163,-0.2216,-0.2242,-0.2185,-0.2198,-0.2102,-0.2076,-0.201,-0.192,-0.1886,-0.1914,-0.1788,-0.1826,-0.182,-0.1784,-0.1779,-0.1766,-0.1755,-0.1906,-0.1906,-0.1907,0,0,-0.2051,-0.208,-0.207,-0.2086,-0.2136,-0.2142,-0.2156,-0.2183,-0.2155,-0.21,-0.2059,-0.1993,-0.1929,-0.1834,-0.1786,-0.1697,-0.1733,-0.1709,-0.1641,-0.1635,-0.1624,-0.1615,-0.1584,-0.1572,-0.1717,-0.1717,-0.1717,0,-0.2006,-0.1994,-0.2068,-0.2059,-0.2054,-0.2129,-0.2097,-0.2075,-0.2058,-0.2034,-0.2061,-0.1923,-0.1859,-0.1717,-0.1664,-0.1667,-0.1695,-0.169,-0.1625,-0.1615,-0.1606,-0.1578,-0.1565,-0.1714,-0.1714,-0.1714,-0.1715,0,-0.1961,-0.1933,-0.194,-0.193,-0.1934,-0.193,-0.194,-0.1932,-0.1938,-0.1915,-0.1828,-0.1761,-0.1685,-0.1651,-0.1616,-0.1508,-0.1557,-0.161,-0.1657,-0.1589,-0.1563,-0.1551,-0.1709,-0.171,-0.1711,-0.1712,0,0,-0.1876,-0.1895,-0.1889,-0.1874,-0.1866,-0.1886,-0.1807,-0.1774,-0.1769,-0.1724,-0.1677,-0.1508,-0.1538,-0.148,-0.1453,-0.1426,-0.1352,-0.1495,-0.1497,-0.147,-0.1353,-0.1483,-0.1483,-0.1446,-0.1443,-0.1442,-0.1359,0,-0.1797,-0.176,-0.1772,-0.1704,-0.1688,-0.1721,-0.1662,-0.1646,-0.1645,-0.1626,-0.1557,-0.1509,-0.1455,-0.1465,-0.1399,-0.138,-0.1322,-0.1368,-0.1415,-0.1414,-0.1545,-0.1474,-0.1305,-0.1229,-0.1347,-0.1345,-0.1344,0,-0.1705,-0.1709,-0.1639,-0.1631,-0.1638,-0.1617,-0.1615,-0.1564,-0.1542,-0.1574,-0.1518,-0.1498,-0.1365,-0.1399,-0.1266,-0.1331,-0.1298,-0.1292,-0.1292,-0.1419,-0.1522,-0.1315,-0.1203,-0.1325,-0.1326,-0.1328,-0.1329,0,-0.1617,-0.159,-0.154,-0.153,-0.1544,-0.1551,-0.1563,-0.1558,-0.1572,-0.1556,-0.1612,-0.1469,-0.1448,-0.1374,-0.1301,-0.131,-0.1234,-0.1252,-0.1312,-0.132,-0.1178,-0.118,-0.1148,-0.1149,-0.1149,-0.1149,-0.1149,0,-0.1489,-0.1461,-0.1532,-0.1519,-0.1555,-0.1543,-0.157,-0.161,-0.1634,-0.1661,-0.159,-0.1593,-0.1461,-0.1397,-0.1316,-0.1286,-0.1234,-0.126,-0.1304,-0.1155,-0.1157,-0.1249,-0.1261,-0.1146,-0.1147,-0.1147,-0.1148,0,-0.1394,-0.1395,-0.1402,-0.1471,-0.1513,-0.1557,-0.1663,-0.1702,-0.1726,-0.1766,-0.1773,-0.1692,-0.1622,-0.1509,-0.1397,-0.134,-0.1293,-0.1295,-0.1125,-0.1152,-0.1359,-0.1369,-0.1311,-0.1315,-0.1318,-0.1321,-0.1323,0,-0.1341,-0.1321,-0.1436,-0.1501,-0.1558,-0.1634,-0.1709,-0.1773,-0.1815,-0.1823,-0.1847,-0.1784,-0.1677,-0.157,-0.1482,-0.1377,-0.1389,-0.1229,-0.1189,-0.1325,-0.1373,-0.1378,-0.1383,-0.0938,-0.0937,-0.0936,-0.0935,0,-0.1302,-0.1349,-0.1405,-0.1527,-0.1638,-0.1723,-0.1821,-0.1866,-0.1896,-0.186,-0.1784,-0.1677,-0.1636,-0.1426,-0.1399,-0.1319,-0.1237,-0.122,-0.1367,-0.0991,-0.0986,-0.1031,-0.1045,-0.0928,-0.0928,-0.0929,-0.0929,-0.093,-0.1324,-0.1376,-0.1445,-0.1556,-0.1681,-0.1737,-0.1697,-0.1767,-0.1709,-0.1611,-0.165,-0.1454,-0.143,-0.1264,-0.1212,-0.1198,-0.1267,-0.1158,-0.1152,-0.1149,-0.1189,-0.1198,-0.1182,-0.1184,-0.1186,-0.1187,-0.1189,0,-0.1307,-0.1352,-0.1465,-0.1541,-0.1586,-0.1673,-0.1703,-0.159,-0.141,-0.1444,-0.1305,-0.1108,-0.0999,-0.1033,-0.0977,-0.0996,-0.0886,-0.0975,-0.0782,-0.0791,-0.0799,-0.0814,-0.071,-0.0709,-0.0708,-0.0707,0,0,-0.1296,-0.1335,-0.1372,-0.1386,-0.1431,-0.1365,-0.13,-0.1187,-0.113,-0.0933,-0.0846,-0.0937,-0.096,-0.0822,-0.0803,-0.0746,-0.0751,-0.0711,-0.1084,-0.0861,-0.0868,-0.0891,-0.0927,0,0,0,0,0]},{"header":{"parameterUnit":"m.s-1","parameterCategory":2,"la1":30.2991,"la2":30.254,"lo1":-89.0895,"lo2":-89.0444,"dy":0.0017,"dx":0.0017,"nx":28,"ny":28,"refTime":"2023-03-20T15:00:00:Z","depth":"2","parameterNumber":3,"parameterNumberName":"V-component_of_CURRENTS"},"data":[0,0,0,0,0,0,0,0,0,0,0,0,0,0,0,0,0,0,0,0,0,0,0,0,0,0,0,0,0,0,0,0,0,0,0,0,0,0,0,0,0,0,0,0,0,0,0,0,0,0,0,0,0,0,0,0,0,0,-0.0599,-0.06,0,-0.0681,-0.0681,-0.0681,-0.0724,-0.0725,-0.0726,-0.0727,-0.0594,-0.059,-0.0586,0,0,0,0,0,0,0,0,0,0,0,0,0,-0.0451,-0.0453,-0.0599,-0.06,-0.0602,-0.0681,-0.0681,-0.0682,-0.0724,-0.0725,-0.0726,-0.0727,-0.0595,-0.059,-0.0585,0,0,0,0,0,0,0,0,0,0,0,0,0,-0.0515,-0.0453,-0.0598,-0.0638,-0.0643,-0.0681,-0.0681,-0.0682,-0.0724,-0.0725,-0.0726,-0.0727,-0.0597,-0.0591,-0.0585,-0.0524,0,0,-0.0565,-0.0563,0,0,0,0,0,0,0,0,-0.0511,-0.052,-0.0631,-0.0636,-0.0641,-0.07,-0.0581,-0.0621,-0.0724,-0.0686,-0.0727,-0.0728,-0.0613,-0.0606,-0.0612,-0.0518,-0.0512,-0.0565,-0.0561,-0.0558,-0.0557,0,0,0,0,0,0,0,-0.0507,-0.0516,-0.0624,-0.0633,-0.0639,-0.0643,-0.0653,-0.0589,-0.0633,-0.0689,-0.0694,-0.0715,-0.0614,-0.0618,-0.0608,-0.051,-0.0565,-0.0559,-0.0556,-0.0553,-0.0365,-0.0364,0,0,0,0,0,0,-0.0512,-0.0512,-0.0621,-0.0627,-0.0586,-0.0645,-0.0656,-0.0674,-0.0638,-0.0638,-0.0714,-0.0716,-0.0628,-0.0616,-0.0603,-0.0555,-0.0558,-0.0552,-0.0549,-0.0366,-0.0365,-0.0363,0,0,0,0,0,0,-0.0508,-0.0521,-0.0618,-0.0577,-0.0591,-0.0648,-0.0667,-0.0675,-0.0678,-0.0661,-0.0655,-0.071,-0.0628,-0.0612,-0.0552,-0.0549,-0.055,-0.0544,-0.0367,-0.0366,-0.0364,-0.044,0,0,0,0,0,0,-0.0504,-0.0519,-0.0518,-0.0578,-0.0594,-0.0623,-0.0667,-0.0676,-0.0693,-0.0697,-0.0654,-0.0644,-0.0628,-0.0561,-0.0545,-0.054,-0.0539,-0.0369,-0.0367,-0.0364,-0.0439,-0.0441,-0.0442,0,0,0,0,0,-0.0498,-0.05,-0.0518,-0.0531,-0.0597,-0.0622,-0.0628,-0.0668,-0.0692,-0.0677,-0.0665,-0.0646,-0.0536,-0.0555,-0.0537,-0.053,-0.037,-0.0367,-0.0365,-0.0438,-0.044,-0.0442,0,0,0,0,0,0,-0.0437,-0.0507,-0.0528,-0.0551,-0.0576,-0.0632,-0.0634,-0.0659,-0.0642,-0.0639,-0.0625,-0.0612,-0.0562,-0.0519,-0.0542,-0.0465,-0.045,-0.0443,-0.0512,-0.0513,-0.0515,-0.0596,-0.0534,0,0,0,0,0,-0.0424,-0.0445,-0.05,-0.0516,-0.0528,-0.0575,-0.0589,-0.0611,-0.0619,-0.0616,-0.0595,-0.0562,-0.0534,-0.0505,-0.0461,-0.0406,-0.0382,-0.0387,-0.0389,-0.0391,-0.0442,-0.0417,-0.0423,-0.0354,-0.0354,-0.0354,0,0,-0.0413,-0.045,-0.0465,-0.0504,-0.0531,-0.0556,-0.0584,-0.0597,-0.0627,-0.0595,-0.0596,-0.0557,-0.0519,-0.0482,-0.0453,-0.0447,-0.0379,-0.0388,-0.0391,-0.0441,-0.0415,-0.0422,-0.0429,-0.0352,-0.0353,-0.0353,0,0,-0.0397,-0.0423,-0.0432,-0.0453,-0.0488,-0.0523,-0.0524,-0.056,-0.058,-0.0551,-0.0569,-0.0555,-0.0454,-0.0489,-0.0479,-0.0456,-0.0391,-0.0396,-0.0473,-0.0447,-0.0454,-0.0461,-0.0373,-0.0372,-0.0398,-0.0398,-0.0398,0,-0.0378,-0.0419,-0.0433,-0.0446,-0.0498,-0.0511,-0.055,-0.0556,-0.0568,-0.0596,-0.0542,-0.0512,-0.0483,-0.0523,-0.0531,-0.0472,-0.0408,-0.0475,-0.0456,-0.0462,-0.0467,-0.0377,-0.0374,-0.0401,-0.0401,-0.04,-0.04,0,-0.0373,-0.0412,-0.0418,-0.0463,-0.0492,-0.0525,-0.0562,-0.0552,-0.0557,-0.0592,-0.0593,-0.0557,-0.0554,-0.0531,-0.0526,-0.0561,-0.0482,-0.0464,-0.0467,-0.048,-0.0381,-0.0377,-0.0406,-0.0405,-0.0404,-0.0403,0,0,-0.0354,-0.0413,-0.0418,-0.0464,-0.0525,-0.0549,-0.0578,-0.0645,-0.0644,-0.0641,-0.0672,-0.0681,-0.0673,-0.0667,-0.0651,-0.0653,-0.0624,-0.0579,-0.0575,-0.0522,-0.0498,-0.0374,-0.0356,-0.0582,-0.0584,-0.0585,-0.0391,0,-0.0372,-0.0437,-0.0455,-0.0528,-0.0598,-0.0613,-0.0635,-0.0676,-0.0663,-0.0658,-0.0704,-0.0674,-0.072,-0.0663,-0.0709,-0.0631,-0.0625,-0.0675,-0.0471,-0.0465,-0.0379,-0.0354,-0.0424,-0.0253,-0.0387,-0.0386,-0.0386,0,-0.0396,-0.0453,-0.0553,-0.062,-0.0637,-0.0633,-0.0678,-0.0695,-0.0708,-0.0669,-0.0704,-0.069,-0.0747,-0.0717,-0.0698,-0.0707,-0.0639,-0.0581,-0.0571,-0.0448,-0.0336,-0.027,-0.024,-0.0379,-0.0379,-0.038,-0.038,0,-0.0482,-0.0527,-0.0632,-0.0664,-0.0717,-0.0706,-0.0699,-0.0705,-0.0702,-0.0661,-0.0594,-0.0674,-0.062,-0.0624,-0.0554,-0.0593,-0.046,-0.0482,-0.032,-0.0305,-0.0331,-0.0318,-0.0474,-0.0475,-0.0475,-0.0476,-0.0476,0,-0.0589,-0.0648,-0.064,-0.071,-0.0712,-0.0736,-0.0718,-0.0661,-0.0624,-0.0613,-0.0606,-0.0556,-0.0585,-0.0527,-0.0514,-0.0381,-0.0423,-0.0342,-0.0266,-0.0344,-0.0336,-0.0439,-0.0438,-0.0468,-0.047,-0.0471,-0.0473,0,-0.0697,-0.0742,-0.0795,-0.0795,-0.0775,-0.0755,-0.0684,-0.0665,-0.0575,-0.0531,-0.0504,-0.0447,-0.0333,-0.032,-0.0239,-0.0254,-0.0164,-0.0103,-0.0158,-0.0094,-0.0041,-0.0045,0.0072,0.0078,0.0082,0.0086,0.009,0,-0.0774,-0.0828,-0.0808,-0.0816,-0.0793,-0.076,-0.0747,-0.065,-0.0617,-0.0469,-0.0451,-0.0295,-0.0248,-0.0054,-0.0007,0.0095,0.0044,0.0133,-0.001,-0.0057,0.0006,-0.0005,-0.0016,-0.0039,-0.0037,-0.0035,-0.0034,0,-0.0851,-0.0815,-0.0849,-0.0863,-0.0832,-0.0808,-0.0745,-0.0694,-0.0602,-0.0532,-0.0402,-0.0335,-0.0116,-0.0033,0.0166,0.0187,0.0096,0.0175,0.014,-0.0159,-0.0144,-0.0087,-0.0098,-0.0019,-0.0021,-0.0022,-0.0023,-0.0023,-0.0846,-0.084,-0.0875,-0.088,-0.0858,-0.0834,-0.0798,-0.0739,-0.0677,-0.0525,-0.0435,-0.0298,-0.0156,0.0082,0.0191,0.03,0.0268,0.0232,0.0219,0.0205,0.0165,0.0188,0.0371,0.0372,0.0372,0.0373,0.0373,0,-0.0892,-0.0894,-0.0902,-0.0912,-0.0898,-0.0871,-0.0813,-0.077,-0.0695,-0.0552,-0.0439,-0.0283,-0.0135,0.0051,0.0212,0.0308,0.0203,0.0335,0.0149,0.0136,0.0124,0.007,0.0256,0.0256,0.0256,0.0257,0,0,-0.0934,-0.0974,-0.0989,-0.0975,-0.0946,-0.0891,-0.0848,-0.0772,-0.0668,-0.054,-0.0433,-0.0285,-0.0109,-0.0006,0.0109,0.0196,0.0132,0.0194,0.0272,0.0023,0.001,0.0049,-0.0047,0,0,0,0,0]}],[{"header":{"parameterUnit":"m.s-1","parameterCategory":2,"la1":30.2991,"la2":30.254,"lo1":-89.0895,"lo2":-89.0444,"dy":0.0017,"dx":0.0017,"nx":28,"ny":28,"refTime":"2023-03-20T15:00:00:Z","depth":"4","parameterNumber":2,"parameterNumberName":"U-component_of_CURRENTS"},"data":[0,0,0,0,0,0,0,0,0,0,0,0,0,0,0,0,0,0,0,0,0,0,0,0,0,0,0,0,0,0,0,0,0,0,0,0,0,0,0,0,0,0,0,0,0,0,0,0,0,0,0,0,0,0,0,0,0,0,-0.0642,-0.0641,0,-0.0638,-0.0639,-0.064,-0.0684,-0.0684,-0.0684,-0.0685,-0.0697,-0.0698,-0.0698,0,0,0,0,0,0,0,0,0,0,0,0,0,-0.0597,-0.0599,-0.0642,-0.0641,-0.064,-0.0638,-0.0639,-0.064,-0.0684,-0.0684,-0.0684,-0.0685,-0.0697,-0.0698,-0.0698,0,0,0,0,0,0,0,0,0,0,0,0,0,-0.0619,-0.06,-0.0642,-0.0653,-0.0653,-0.0638,-0.0639,-0.064,-0.0684,-0.0684,-0.0685,-0.0685,-0.0697,-0.0698,-0.0698,-0.0697,0,0,-0.0699,-0.0699,0,0,0,0,0,0,0,0,-0.0618,-0.0622,-0.0652,-0.0652,-0.0652,-0.0651,-0.0627,-0.0656,-0.0684,-0.0685,-0.0685,-0.0685,-0.0675,-0.0678,-0.0694,-0.0697,-0.0698,-0.0699,-0.0699,-0.0699,-0.07,0,0,0,0,0,0,0,-0.0616,-0.0622,-0.0653,-0.0651,-0.065,-0.0625,-0.0631,-0.0633,-0.0689,-0.0685,-0.0685,-0.0665,-0.0677,-0.0693,-0.0694,-0.0698,-0.0699,-0.0699,-0.07,-0.07,-0.0728,-0.0729,0,0,0,0,0,0,-0.0597,-0.0621,-0.0653,-0.0651,-0.0621,-0.0625,-0.0632,-0.0661,-0.0689,-0.0689,-0.0665,-0.0667,-0.0692,-0.0693,-0.0694,-0.0728,-0.0699,-0.07,-0.07,-0.0728,-0.0728,-0.0729,0,0,0,0,0,0,-0.0598,-0.0603,-0.0653,-0.0623,-0.0626,-0.0625,-0.0658,-0.0661,-0.0684,-0.0671,-0.0675,-0.0685,-0.0693,-0.0694,-0.0698,-0.0728,-0.07,-0.07,-0.0727,-0.0728,-0.0729,-0.0774,0,0,0,0,0,0,-0.0597,-0.0604,-0.0653,-0.0624,-0.0627,-0.0651,-0.0656,-0.066,-0.0665,-0.0669,-0.0689,-0.069,-0.0693,-0.0697,-0.0698,-0.0728,-0.0701,-0.0726,-0.0727,-0.0728,-0.0772,-0.0776,-0.078,0,0,0,0,0,-0.0597,-0.0656,-0.0657,-0.0661,-0.0686,-0.065,-0.0652,-0.0657,-0.0666,-0.0681,-0.0686,-0.069,-0.0705,-0.0698,-0.0699,-0.0729,-0.0726,-0.0727,-0.0728,-0.077,-0.0775,-0.078,0,0,0,0,0,0,-0.0705,-0.0664,-0.0665,-0.0725,-0.0687,-0.0653,-0.067,-0.0661,-0.0681,-0.0688,-0.0689,-0.0691,-0.0708,-0.0705,-0.0697,-0.0739,-0.0719,-0.0721,-0.075,-0.0755,-0.0759,-0.0757,-0.0701,0,0,0,0,0,-0.0737,-0.0744,-0.0705,-0.0746,-0.073,-0.0701,-0.0699,-0.0685,-0.0674,-0.0685,-0.0695,-0.0705,-0.0714,-0.0722,-0.0728,-0.0745,-0.0739,-0.0766,-0.0771,-0.0774,-0.0772,-0.0832,-0.0842,-0.0733,-0.0733,-0.0733,0,0,-0.078,-0.0762,-0.0768,-0.0762,-0.074,-0.0713,-0.0705,-0.0687,-0.0682,-0.068,-0.0707,-0.0717,-0.0719,-0.0743,-0.0752,-0.0745,-0.0787,-0.0776,-0.0779,-0.0775,-0.0835,-0.0846,-0.0855,-0.0734,-0.0734,-0.0734,0,0,-0.0794,-0.0858,-0.0827,-0.0805,-0.0752,-0.0742,-0.0732,-0.0701,-0.0717,-0.0715,-0.0725,-0.0747,-0.0756,-0.0776,-0.0781,-0.0808,-0.0805,-0.0816,-0.0842,-0.0901,-0.0911,-0.092,-0.0865,-0.0869,-0.0823,-0.0823,-0.0823,0,-0.0843,-0.083,-0.0817,-0.0775,-0.0771,-0.075,-0.0722,-0.0729,-0.0709,-0.0726,-0.0725,-0.0765,-0.0772,-0.0806,-0.0822,-0.082,-0.0819,-0.0826,-0.0909,-0.0918,-0.0926,-0.0868,-0.0872,-0.0826,-0.0825,-0.0825,-0.0825,0,-0.0779,-0.0808,-0.0796,-0.0744,-0.0743,-0.0728,-0.071,-0.0727,-0.0744,-0.0746,-0.0785,-0.0802,-0.0836,-0.0841,-0.0839,-0.0906,-0.0869,-0.0906,-0.09,-0.094,-0.0875,-0.0878,-0.0829,-0.0828,-0.0827,-0.0827,0,0,-0.0771,-0.0755,-0.075,-0.0751,-0.0739,-0.0721,-0.0739,-0.0745,-0.0756,-0.078,-0.0814,-0.0847,-0.0881,-0.089,-0.0908,-0.0947,-0.0988,-0.0958,-0.096,-0.0906,-0.1046,-0.0937,-0.0929,-0.1063,-0.1066,-0.1067,-0.0954,0,-0.0721,-0.0681,-0.0681,-0.0676,-0.0673,-0.07,-0.0718,-0.0732,-0.0757,-0.0792,-0.084,-0.0879,-0.0895,-0.0926,-0.0977,-0.1006,-0.1008,-0.1009,-0.1011,-0.1008,-0.0914,-0.0935,-0.1075,-0.0956,-0.0957,-0.0957,-0.0958,0,-0.0632,-0.0633,-0.0626,-0.0675,-0.0672,-0.0668,-0.0717,-0.0727,-0.0778,-0.081,-0.0874,-0.091,-0.0988,-0.0995,-0.1061,-0.1071,-0.1057,-0.1051,-0.1048,-0.0939,-0.0909,-0.0922,-0.0963,-0.0963,-0.0962,-0.0962,-0.0962,0,-0.0608,-0.0604,-0.0622,-0.063,-0.066,-0.0673,-0.0695,-0.0732,-0.0751,-0.0837,-0.0848,-0.096,-0.1005,-0.1063,-0.1047,-0.1092,-0.1059,-0.1129,-0.0981,-0.0968,-0.108,-0.1072,-0.1141,-0.1142,-0.1142,-0.1142,-0.1143,0,-0.0575,-0.0586,-0.0611,-0.0617,-0.0629,-0.0662,-0.0679,-0.0713,-0.0762,-0.0771,-0.0869,-0.0877,-0.1038,-0.1029,-0.1042,-0.0989,-0.1065,-0.0969,-0.0955,-0.1088,-0.1084,-0.1077,-0.1071,-0.1138,-0.1139,-0.114,-0.114,0,-0.0549,-0.0573,-0.0584,-0.0614,-0.0619,-0.0627,-0.0657,-0.0659,-0.0715,-0.0727,-0.0764,-0.085,-0.0878,-0.0904,-0.0958,-0.0949,-0.0924,-0.0856,-0.0888,-0.0879,-0.079,-0.0788,-0.0758,-0.0754,-0.075,-0.0747,-0.0745,0,-0.0539,-0.0543,-0.0563,-0.0558,-0.0569,-0.0585,-0.0584,-0.0643,-0.0635,-0.0673,-0.0659,-0.0704,-0.0747,-0.0707,-0.0777,-0.0758,-0.0748,-0.0706,-0.0862,-0.0772,-0.0762,-0.0766,-0.0768,-0.0739,-0.0738,-0.0737,-0.0736,0,-0.0511,-0.0517,-0.0518,-0.0508,-0.0502,-0.0498,-0.0495,-0.0495,-0.0542,-0.0579,-0.0582,-0.061,-0.0597,-0.0677,-0.0615,-0.0611,-0.0761,-0.067,-0.0681,-0.0828,-0.0749,-0.0743,-0.075,-0.0724,-0.0725,-0.0727,-0.0727,0,-0.0478,-0.0464,-0.0456,-0.0442,-0.0431,-0.0404,-0.0426,-0.0417,-0.0436,-0.0484,-0.0476,-0.0514,-0.0587,-0.0584,-0.0531,-0.0525,-0.0583,-0.0611,-0.0627,-0.0641,-0.0661,-0.0547,-0.0441,0,0,0,0,0,-0.044,-0.0409,-0.0388,-0.0361,-0.0349,-0.0344,-0.0348,-0.0373,-0.0408,-0.0399,-0.045,-0.044,-0.0459,-0.0481,-0.0463,-0.0473,-0.056,-0.0447,-0.0595,-0.0654,-0.0669,-0.0707,0,0,0,0,0,0,-0.0408,-0.0383,-0.0363,-0.0291,-0.0265,-0.0241,-0.0252,-0.0284,-0.0289,-0.0345,-0.0365,-0.0407,-0.043,-0.0465,-0.0454,-0.0454,-0.0538,-0.0471,-0.0469,-0.0646,-0.0659,-0.0671,-0.0716,0,0,0,0,0]},{"header":{"parameterUnit":"m.s-1","parameterCategory":2,"la1":30.2991,"la2":30.254,"lo1":-89.0895,"lo2":-89.0444,"dy":0.0017,"dx":0.0017,"nx":28,"ny":28,"refTime":"2023-03-20T15:00:00:Z","depth":"4","parameterNumber":3,"parameterNumberName":"V-component_of_CURRENTS"},"data":[0,0,0,0,0,0,0,0,0,0,0,0,0,0,0,0,0,0,0,0,0,0,0,0,0,0,0,0,0,0,0,0,0,0,0,0,0,0,0,0,0,0,0,0,0,0,0,0,0,0,0,0,0,0,0,0,0,0,-0.0007,-0.0007,0,-0.0019,-0.0019,-0.002,-0.0026,-0.0026,-0.0025,-0.0025,-0.0071,-0.0072,-0.0074,0,0,0,0,0,0,0,0,0,0,0,0,0,0.0041,0.0039,-0.0007,-0.0007,-0.0007,-0.0019,-0.0019,-0.002,-0.0026,-0.0026,-0.0025,-0.0025,-0.007,-0.0072,-0.0074,0,0,0,0,0,0,0,0,0,0,0,0,0,0.0019,0.0039,-0.0007,-0.0008,-0.0008,-0.0019,-0.0019,-0.002,-0.0026,-0.0026,-0.0025,-0.0024,-0.007,-0.0072,-0.0074,-0.01,0,0,-0.0081,-0.0082,0,0,0,0,0,0,0,0,0.0021,0.0017,-0.0008,-0.0008,-0.0008,-0.0017,-0.0019,-0.0047,-0.0026,-0.0024,-0.0025,-0.0024,-0.0053,-0.0057,-0.0066,-0.0102,-0.0104,-0.0082,-0.0083,-0.0084,-0.0085,0,0,0,0,0,0,0,0.0022,0.0018,-0.0016,-0.0008,-0.0008,0.0003,-0.0,-0.0024,-0.0046,-0.0024,-0.0023,-0.0018,-0.0054,-0.0064,-0.0067,-0.0105,-0.0082,-0.0084,-0.0085,-0.0086,-0.0175,-0.0176,0,0,0,0,0,0,0.0029,0.0019,-0.0016,-0.0016,0.0013,0.0002,-0.0002,-0.0018,-0.0045,-0.0047,-0.0019,-0.0018,-0.006,-0.0065,-0.0069,-0.0113,-0.0084,-0.0086,-0.0088,-0.0174,-0.0176,-0.0177,0,0,0,0,0,0,0.003,0.0026,-0.0015,0.0006,0.0002,0.0001,-0.0017,-0.0018,-0.0025,-0.0039,-0.0043,-0.0023,-0.006,-0.0066,-0.0091,-0.0114,-0.0087,-0.0089,-0.0173,-0.0175,-0.0176,-0.0194,0,0,0,0,0,0,0.0031,0.0025,0.0003,0.0006,0.0001,-0.0029,-0.0018,-0.0019,-0.0021,-0.0021,-0.0045,-0.0048,-0.006,-0.0087,-0.0093,-0.0117,-0.0091,-0.0172,-0.0174,-0.0176,-0.0192,-0.0196,-0.0199,0,0,0,0,0,0.0032,-0.0015,0.0002,-0.0002,-0.0025,-0.0029,-0.0032,-0.0032,-0.0022,-0.0035,-0.0044,-0.0048,-0.0103,-0.009,-0.0097,-0.0122,-0.0171,-0.0173,-0.0175,-0.0191,-0.0195,-0.0199,0,0,0,0,0,0,-0.0024,-0.0019,-0.0001,-0.0049,-0.0033,-0.0029,-0.0052,-0.0033,-0.005,-0.0051,-0.0058,-0.0064,-0.0098,-0.0106,-0.0091,-0.0153,-0.0139,-0.0143,-0.0148,-0.0153,-0.0156,-0.0173,-0.0093,0,0,0,0,0,-0.0038,-0.0064,-0.0042,-0.0078,-0.0074,-0.0055,-0.006,-0.0046,-0.0051,-0.0058,-0.0069,-0.0087,-0.0114,-0.0127,-0.0153,-0.0184,-0.0172,-0.0205,-0.0209,-0.0211,-0.023,-0.0192,-0.0192,-0.0184,-0.0184,-0.0184,0,0,-0.0068,-0.0069,-0.0084,-0.0089,-0.0083,-0.0089,-0.006,-0.0065,-0.0074,-0.0062,-0.0096,-0.0102,-0.0125,-0.0163,-0.0179,-0.017,-0.0213,-0.0214,-0.0216,-0.0234,-0.0194,-0.0194,-0.0195,-0.0185,-0.0185,-0.0185,0,0,-0.0127,-0.014,-0.0166,-0.0154,-0.0135,-0.0125,-0.0121,-0.0106,-0.011,-0.0125,-0.0124,-0.0143,-0.0177,-0.02,-0.0216,-0.0255,-0.0232,-0.0257,-0.0289,-0.025,-0.025,-0.025,-0.0253,-0.0252,-0.0257,-0.0257,-0.0257,0,-0.0163,-0.0186,-0.0174,-0.0184,-0.0184,-0.014,-0.0153,-0.0155,-0.0148,-0.016,-0.0142,-0.0196,-0.0204,-0.0258,-0.0265,-0.0266,-0.024,-0.0268,-0.0253,-0.0252,-0.0252,-0.0254,-0.0253,-0.0258,-0.0258,-0.0258,-0.0258,0,-0.022,-0.0233,-0.0252,-0.0247,-0.0251,-0.0257,-0.0237,-0.0244,-0.0233,-0.0226,-0.0264,-0.027,-0.0298,-0.0303,-0.0295,-0.031,-0.0294,-0.0258,-0.0237,-0.0253,-0.0256,-0.0255,-0.026,-0.026,-0.0259,-0.0259,0,0,-0.0321,-0.0294,-0.0303,-0.0294,-0.0279,-0.029,-0.0312,-0.0321,-0.0347,-0.0335,-0.0371,-0.0398,-0.0377,-0.0394,-0.0382,-0.0354,-0.0326,-0.0298,-0.0296,-0.0294,-0.0255,-0.0247,-0.0245,-0.026,-0.026,-0.026,-0.0264,0,-0.0364,-0.0379,-0.0368,-0.0392,-0.039,-0.0371,-0.0401,-0.0405,-0.041,-0.0436,-0.043,-0.0462,-0.0418,-0.0428,-0.0389,-0.0328,-0.0321,-0.033,-0.0248,-0.0247,-0.023,-0.0243,-0.0258,-0.0263,-0.0263,-0.0263,-0.0262,0,-0.0412,-0.0417,-0.0433,-0.0437,-0.0444,-0.0465,-0.0507,-0.0525,-0.0544,-0.0547,-0.0557,-0.0543,-0.0522,-0.0476,-0.0388,-0.038,-0.0334,-0.0292,-0.0289,-0.0277,-0.0237,-0.0241,-0.026,-0.0261,-0.0261,-0.0261,-0.0261,0,-0.0447,-0.0465,-0.0477,-0.0476,-0.0481,-0.0512,-0.0533,-0.0562,-0.0592,-0.0617,-0.0635,-0.0602,-0.0592,-0.0497,-0.0417,-0.0375,-0.0328,-0.0256,-0.0234,-0.0234,-0.0231,-0.0231,-0.0232,-0.0232,-0.0232,-0.0232,-0.0232,0,-0.047,-0.0488,-0.0496,-0.0499,-0.0561,-0.0552,-0.0621,-0.0642,-0.0674,-0.0702,-0.0687,-0.0693,-0.0585,-0.0547,-0.0445,-0.0346,-0.0347,-0.0257,-0.023,-0.0243,-0.0244,-0.0231,-0.0231,-0.0232,-0.0232,-0.0232,-0.0232,0,-0.0479,-0.047,-0.0501,-0.0538,-0.056,-0.0608,-0.0671,-0.0712,-0.0736,-0.077,-0.0776,-0.075,-0.0649,-0.0596,-0.047,-0.04,-0.0307,-0.0302,-0.038,-0.0355,-0.0228,-0.0229,-0.0214,-0.0214,-0.0213,-0.0213,-0.0213,0,-0.047,-0.0477,-0.0542,-0.0581,-0.0602,-0.0666,-0.0705,-0.0741,-0.0766,-0.0783,-0.0786,-0.0751,-0.0708,-0.0554,-0.0466,-0.0338,-0.0323,-0.0321,-0.0216,-0.0249,-0.0224,-0.0226,-0.0227,-0.0212,-0.0212,-0.0212,-0.0212,0,-0.0482,-0.0509,-0.0543,-0.0615,-0.067,-0.0727,-0.0772,-0.0791,-0.0804,-0.0835,-0.0771,-0.0708,-0.0631,-0.0498,-0.0472,-0.036,-0.0318,-0.0316,-0.0313,-0.0213,-0.0247,-0.0223,-0.0224,-0.0211,-0.0211,-0.0211,-0.0211,0,-0.0508,-0.0545,-0.0589,-0.0657,-0.0719,-0.0751,-0.0782,-0.0776,-0.0792,-0.0783,-0.0749,-0.0672,-0.0633,-0.0513,-0.0448,-0.0378,-0.0297,-0.0262,-0.026,-0.026,-0.0263,-0.0312,-0.0284,0,0,0,0,0,-0.0529,-0.0565,-0.0628,-0.0689,-0.0744,-0.0774,-0.0806,-0.0816,-0.0816,-0.076,-0.075,-0.0657,-0.053,-0.0484,-0.0394,-0.042,-0.0305,-0.0316,-0.0268,-0.0205,-0.0207,-0.02,0,0,0,0,0,0,-0.0543,-0.0599,-0.0625,-0.0689,-0.0732,-0.0781,-0.0795,-0.0798,-0.0752,-0.074,-0.0661,-0.0639,-0.0511,-0.0572,-0.0391,-0.0374,-0.0331,-0.0264,-0.0263,-0.0205,-0.0206,-0.0207,-0.02,0,0,0,0,0]}]]